This demonstration page uses our WeatherBlox Daily Observations layout. Learn more.

Left ArrowRight Arrow

39.92423, -83.80882

Hourly Observations for December 17, 2015

Temp ( °F °C ) Dew Point ( °F °C ) Humidity (%) Winds ( mph kmh ) Pressure ( in mb ) Visibility ( mi km ) Precip ( " mm )
12:56 am 00:56 Mostly Cloudy 55 12.7 49 9.4 81 81 WSW 10 17 29.74 1007 10 16.0934 0 0
1:56 am 01:56 Cloudy 54 12.2 49 9.4 83 83 W 13 20 29.73 1007 10 16.0934 0 0
2:12 am 02:12 Cloudy 48 9 39 4 71 71 WNW 14 22 29.77 1008 10 16.0934 0 0
2:26 am 02:26 Mostly Cloudy 46 8 34 1 62 62 W 16 26 29.77 1008 10 16.0934 0 0
2:56 am 02:56 Mostly Clear 43 6.1 33 0.5 68 68 WNW 13 20 29.78 1008 10 16.0934 0 0
3:56 am 03:56 Partly Cloudy 40 4.4 33 0.5 76 76 WNW 9 15 29.8 1009 10 16.0934 0 0
4:06 am 04:06 Mostly Cloudy 39 4 34 1 81 81 NW 10 17 29.83 1010 10 16.0934 0 0
4:56 am 04:56 Cloudy 40 4.4 34 1.1 79 79 W 8 13 29.81 1010 10 16.0934 0 0
5:56 am 05:56 Cloudy 37 2.7 30 -1.1 76 76 WNW 13 20 29.83 1010 10 16.0934 0 0
6:56 am 06:56 Cloudy 36 2.2 27 -2.7 70 70 WNW 10 17 29.85 1011 10 16.0934 0 0
7:39 am 07:39 Partly Cloudy 34 1 28 -2 81 81 WNW 8 13 29.88 1012 10 16.0934 0 0
7:56 am 07:56 Sunny 33 0.5 28 -2.2 82 82 W 6 9 29.85 1011 10 16.0934 0 0
8:56 am 08:56 Mostly Cloudy 35 1.6 28 -2.2 76 76 WNW 10 17 29.84 1011 10 16.0934 0 0
9:56 am 09:56 Sunny 36 2.2 28 -2.2 73 73 W 12 19 29.86 1011 10 16.0934 0 0
10:56 am 10:56 Sunny 37 2.7 27 -2.7 68 68 W 15 24 29.88 1012 10 16.0934 0 0
11:56 am 11:56 Sunny 38 3.3 28 -2.2 68 68 W 18 30 29.88 1012 10 16.0934 0 0
12:56 pm 12:56 Mostly Sunny 37 2.7 28 -2.2 70 70 WNW 17 28 29.88 1012 10 16.0934 0 0
1:12 pm 13:12 Mostly Cloudy 37 3 28 -2 70 70 WNW 16 26 29.91 1013 10 16.0934 0 0
1:56 pm 13:56 Mostly Cloudy 36 2.2 28 -2.2 73 73 W 16 26 29.88 1012 10 16.0934 0 0
2:56 pm 14:56 Cloudy 34 1.1 26 -3.3 73 73 WNW 15 24 29.89 1012 10 16.0934 0 0
3:56 pm 15:56 Cloudy 33 0.5 26 -3.3 76 76 W 15 24 29.92 1013 10 16.0934 0 0
4:56 pm 16:56 Cloudy 33 0.5 26 -3.3 76 76 W 10 17 29.93 1014 10 16.0934 0 0
5:56 pm 17:56 Cloudy 32 0 27 -2.7 82 82 WNW 12 19 29.95 1014 10 16.0934 0 0
6:56 pm 18:56 Cloudy 31 -0.5 25 -3.8 79 79 W 14 22 29.96 1014 10 16.0934 0 0
7:56 pm 19:56 Cloudy 31 -0.5 25 -3.8 79 79 WNW 13 20 29.98 1015 10 16.0934 0 0
8:56 pm 20:56 Cloudy 31 -0.5 25 -3.8 79 79 NW 14 22 29.99 1016 10 16.0934 0 0
9:56 pm 21:56 Cloudy 31 -0.5 25 -3.8 79 79 NW 8 13 29.99 1016 10 16.0934 0 0
10:56 pm 22:56 Cloudy 31 -0.5 25 -3.8 79 79 WNW 6 9 29.99 1016 10 16.0934 0 0
11:56 pm 23:56 Cloudy 30 -1.1 24 -4.4 79 79 W 9 15 29.99 1016 10 16.0934 0 0

Powered by AerisWeather